EW8943 Weather Reports


time (UTC)temp
F
wind
direction
speed
knots
gust
knots
rain 1hr
in
rain 24hr
in
rain mn
in
humidity
%
barometer
mb
20260506201525 66 275 1.7 8.7 0.00 0.15 0.15 85 1004.4
20260506200012 65 292 2.6 7.8 0.00 0.15 0.15 85 1004.7
20260506194511 64 253 0.9 5.2 0.00 0.15 0.15 86 1004.8
20260506193008 63 281 3.5 7.8 0.00 0.15 0.15 87 1005.0
20260506191507 63 292 0.9 7.8 0.00 0.15 0.15 87 1005.1
20260506190009 63 238 2.6 7.0 0.00 0.15 0.15 87 1005.2
20260506184517 62 283 2.6 10.4 0.00 0.15 0.15 88 1005.3
20260506183004 62 248 1.7 6.1 0.00 0.15 0.15 88 1005.5
20260506181602 62 284 3.5 7.8 0.00 0.15 0.15 88 1005.6
20260506180002 62 277 2.6 8.7 0.00 0.15 0.15 88 1005.7
20260506174502 61 224 3.5 8.7 0.00 0.15 0.15 89 1005.6
20260506173100 61 238 2.6 9.6 0.00 0.15 0.15 89 1005.8
20260506171608 61 233 3.5 8.7 0.00 0.15 0.15 89 1005.8
20260506170059 61 212 3.5 6.1 0.01 0.15 0.15 89 1006.0
20260506164556 61 229 1.7 7.8 0.03 0.15 0.15 90 1005.9
20260506163056 61 235 2.6 8.7 0.04 0.15 0.15 90 1005.9
20260506161554 61 217 3.5 7.8 0.07 0.15 0.15 90 1006.2
20260506154551 61 201 2.6 7.8 0.09 0.12 0.12 89 1006.9
20260506153046 61 183 1.7 8.7 0.09 0.11 0.11 88 1007.0
20260506151545 61 250 2.6 7.0 0.07 0.08 0.08 87 1007.1
20260506150047 61 225 0.9 6.1 0.05 0.05 0.05 86 1006.9
20260506144556 62 244 1.7 6.1 0.03 0.03 0.03 85 1006.8
20260506143039 62 275 2.6 5.2 0.02 0.02 0.02 83 1007.0
20260506141535 63 190 2.6 8.7 0.01 0.01 0.01 80 1006.9
20260506140035 64 200 2.6 8.7 0.00 0.00 0.00 77 1006.8
20260506134533 65 238 5.2 9.6 0.00 0.00 0.00 75 1006.8
20260506133031 65 207 2.6 7.8 0.00 0.00 0.00 76 1006.6
20260506131527 65 275 3.5 13.0 0.00 0.00 0.00 75 1006.7
20260506130027 65 178 2.6 13.9 0.00 0.00 0.00 75 1006.9
20260506124531 65 288 4.3 11.3 0.00 0.00 0.00 75 1007.1
20260506123025 65 279 3.5 13.0 0.00 0.00 0.00 75 1006.9
20260506121522 65 256 2.6 7.8 0.00 0.00 0.00 76 1007.0
20260506120022 65 215 3.5 8.7 0.00 0.00 0.00 76 1006.8
20260506114533 65 175 2.6 9.6 0.00 0.00 0.00 76 1006.6
20260506113020 65 225 1.7 8.7 0.00 0.00 0.00 76 1006.5
20260506111519 64 240 2.6 7.8 0.00 0.00 0.00 76 1006.6
20260506110021 64 98 0.9 8.7 0.00 0.00 0.00 76 1006.5
20260506104515 64 225 1.7 8.7 0.00 0.00 0.00 76 1006.3
20260506103011 64 303 2.6 8.7 0.00 0.00 0.00 76 1006.4
20260506101511 65 223 2.6 8.7 0.00 0.00 0.00 76 1006.4
20260506100018 65 263 0.9 9.6 0.00 0.00 0.00 75 1006.4
20260506094504 65 250 3.5 7.0 0.00 0.00 0.00 74 1006.3
20260506093002 66 244 1.7 7.0 0.00 0.00 0.00 74 1006.5
20260506091502 66 286 4.3 9.6 0.00 0.00 0.00 73 1006.4
20260506090059 66 250 1.7 6.1 0.00 0.00 0.00 73 1006.4
20260506084604 67 261 2.6 8.7 0.00 0.00 0.00 73 1006.6
20260506083057 66 239 2.6 10.4 0.00 0.00 0.00 73 1006.6
20260506081555 66 208 0.9 6.1 0.00 0.00 0.00 73 1006.6
20260506073052 66 254 0.9 5.2 0.00 0.00 0.00 73 1006.8
20260506071556 67 222 1.7 7.0 0.00 0.00 0.00 72 1006.9
20260506061543 68 243 2.6 7.8 0.00 0.00 0.00 69 1007.3
20260506044539 69 261 1.7 7.0 0.00 0.00 0.00 62 1007.8
20260506043029 69 249 0.9 7.8 0.00 0.00 0.00 61 1007.8
20260506041528 69 240 2.6 7.8 0.00 0.00 0.00 60 1007.9
20260506040027 69 223 1.7 7.0 0.00 0.00 0.00 60 1007.9
20260506034525 69 221 0.9 9.6 0.00 0.00 0.00 60 1007.8
20260506033033 70 247 1.7 3.5 0.00 0.00 0.00 59 1007.6
20260506031532 70 217 2.6 10.4 0.00 0.00 0.00 59 1007.6
20260506030045 70 238 2.6 7.0 0.00 0.00 0.00 58 1007.7
20260506024528 70 229 0.9 6.1 0.00 0.00 0.00 57 1007.7
20260506023023 71 194 1.7 7.8 0.00 0.00 0.00 56 1007.8
20260506021523 71 215 1.7 7.0 0.00 0.00 0.00 55 1007.7
20260506020021 72 217 1.7 3.5 0.00 0.00 0.00 54 1007.7
20260506014521 72 192 1.7 4.3 0.00 0.00 0.00 53 1007.4
20260506013020 72 252 1.7 6.1 0.00 0.00 0.00 52 1007.4
20260506011529 73 248 0.9 8.7 0.00 0.00 0.00 51 1007.1
20260506010019 73 273 2.6 7.8 0.00 0.00 0.00 50 1007.1
20260506004533 74 262 2.6 7.8 0.00 0.00 0.00 48 1006.9
20260506003023 75 192 1.7 7.0 0.00 0.00 0.00 47 1006.8
20260506001519 76 180 1.7 7.8 0.00 0.00 0.00 46 1006.7
20260506000022 76 184 1.7 6.1 0.00 0.00 0.00 43 1006.4
20260505234516 77 257 1.7 6.1 0.00 0.00 0.00 42 1006.3
20260505233015 77 271 2.6 7.0 0.00 0.00 0.00 41 1006.3
20260505231521 78 273 2.6 9.6 0.00 0.00 0.00 42 1006.4
20260505230015 78 200 2.6 11.3 0.00 0.00 0.00 41 1006.2
20260505224515 79 123 2.6 13.0 0.00 0.00 0.00 40 1006.2
20260505223014 79 248 5.2 13.0 0.00 0.00 0.00 40 1006.2
20260505221512 79 250 2.6 9.6 0.00 0.00 0.00 40 1006.2
20260505220012 80 234 4.3 10.4 0.00 0.00 0.00 40 1006.3
20260505214513 80 217 5.2 11.3 0.00 0.00 0.00 39 1006.1
20260505213011 80 196 2.6 7.8 0.00 0.00 0.00 39 1006.2
20260505211510 80 261 2.6 9.6 0.00 0.00 0.00 39 1006.1
20260505210010 80 218 0.9 7.8 0.00 0.00 0.00 39 1006.1
20260505204511 80 318 6.1 13.9 0.00 0.00 0.00 37 1006.0
20260505203022 80 277 6.1 13.9 0.00 0.00 0.00 37 1006.1